Погода в Волжском

Россия / Самарская область     53°25′34″N   50°07′16″E
темп.,
°C
ветер,
м/с
пор.,
м/с
влажн.,
%
обл.,
%
осадки,
мм/ч
давл.,
гПа
погр.,
м
17 октября, вс
вс1701:00+5ююз2263100 0.0 102225
04:00+5ю2263100 0.0 102125
07:00+6ю2359100 0.0 102072
10:00+9ююз255297 0.0 1020242
13:00+8ююз1257100 0.0 101985
16:00+11ююв1350100 0.0 1018152
19:00+9ю2262100 0.0 101719
22:00+9ю2272100 0.0 101636
18 октября, пн
пн1801:00+9ю2477100 0.0 1016132
04:00+7ююз2282100 0.0 101521
07:00+7ю2289100 0.0 101421
10:00+9ю1287100 0.1 1014120
13:00+9ю2485100 0.5 1013234
16:00+9ю248669 0.7 1011274
19:00+7ю2296100 0.0 101223
22:00+7ююз2295100 0.0 101133
19 октября, вт
вт1901:00+7зюз2390100 0.0 101061
04:00+7з3475100 0.0 101082
07:00+6з2274100 0.0 101040
10:00+8зсз2365100 0.0 1010382
13:00+9зсз3364100 0.0 10101020
16:00+8зсз3471100 0.2 1010841
19:00+6с3586100 0.2 1011319
22:00+5с2583100 0.2 1010610
20 октября, ср
ср2001:00+5ссз2681100 0.1 1010340
04:00+3ссз3774100 0.1 1010296
07:00+2ссз3882100 0.0 1011303
10:00+4ссз596794 0.0 1012741
13:00+6ссз685095 0.0 10131639
16:00+5сз686093 0.1 10141240
19:00+3сз696598 0.1 10161232
22:00+2ссз5863100 0.1 10171382
21 октября, чт
чт2101:00+2сз585694 0.0 10181052
04:000сз49835 0.1 1019417
07:00−2зсз38847 0.0 1020293
10:00+1сз356911 0.0 1021618
13:00+4з454951 0.0 1020826
16:00+4юз474175 0.0 1019757
19:00+3юз4104576 0.0 1018391
22:00+3ююз51456100 0.0 1016449